Weather in Otradnoe

Russia / Republic of Crimea     44°30′13″N   34°12′47″E
temp.,
°C
wind,
m/s
gust,
m/s
humid.,
%
clouds,
%
prec.,
mm/h
press.,
hPa
HPBL,
m
26 february, fri
fri2600:00+6n338143 0.0 103292
03:00+6w338257 0.0 103182
06:00+7n338354 0.0 103059
09:00+7nw228676 0.0 103041
12:00+9sw128085 0.0 1029154
15:00+10w247954 0.0 1027218
18:00+9wnw22840 0.0 102639
21:00+8w23790 0.0 102543
27 february, sat
sat2700:00+8w56760 0.0 102484
03:00+8w67760 0.0 1023127
06:00+8w57740 0.0 102199
09:00+9w67730 0.0 1020126
12:00+10w68710 0.0 1019248
15:00+11w57710 0.0 1018266
18:00+10nw34780 0.0 101764
21:00+9nnw457823 0.0 101847
28 february, sun
sun2800:00+8nne348967 0.0 1018126
03:00+7nne239082 0.1 1019210
06:00+5nw5577100 0.2 1019375
09:00+5nnw676982 0.2 1020380
12:00+6wnw34616 0.0 1021968
15:00+5sw347321 0.2 1022653
18:00+5nnw347253 0.4 1022668
21:00+3nw457642 0.5 1024323
1 march, mon
mon100:00+3nw447414 0.0 1024249
03:00+3nw447429 0.0 1025258
06:00+3nnw226998 0.0 1025275
09:00+3se127999 0.1 1026383
12:00+4se2179100 0.4 1027446
15:00+3se3390100 1.6 1028334
18:00+2e3396100 3.6 1028252
21:00+2ne2290100 5.4 1030291
2 march, tue
tue200:00+1n227889 0.1 1032406
03:00+1nnw337176 0.1 1032245
06:00+1nnw337433 0.0 1032240
09:00+1nw326726 0.0 1033310
12:00+4ssw22632 0.0 1034736
15:00+4ssw55707 0.0 1033727
18:00+4nw236458 0.0 1031465
21:00+2nw557361 0.0 1032189